Simultaneous Nadir Overpasses (SNOs) Predictions

Prediction of SNOs between AQUA and NPP Satellite Orbit:

Table of predicted SNOs for the next 14.0 days since TLE Epoch: 10/13/2018
Index Date (AQUA) Time (AQUA) Lat,Lon (AQUA) SZA (AQUA ) Date (NPP) Time (NPP) Lat,Lon (NPP) SZA (NPP ) Distance(km) Time Diff (sec)
1 10/13/2018 05:32:38 -75.07, 153.27 74.97 10/13/2018 05:31:39 -75.08, 153.34 74.94 2.09 59
2 10/13/2018 06:21:43 76.08, -36.20 103.97 10/13/2018 06:22:02 76.07, -36.23 103.96 0.78 19
3 10/15/2018 21:49:02 -75.27, -90.33 74.24 10/15/2018 21:48:29 -75.26, -90.36 74.20 0.97 33
4 10/15/2018 22:37:58 76.69, 81.70 104.23 10/15/2018 22:38:42 76.70, 81.81 104.17 2.85 44
5 10/18/2018 14:05:17 -75.94, 27.50 74.04 10/18/2018 14:05:09 -75.95, 27.58 74.06 2.27 8
6 10/18/2018 14:54:23 76.86,-161.82 104.97 10/18/2018 14:55:33 76.86,-161.78 104.90 1.05 70
7 10/21/2018 05:32:39 74.87, -27.27 108.00 10/21/2018 05:31:41 74.86, -27.29 108.06 0.69 58
8 10/21/2018 06:21:41 -76.17, 144.08 73.37 10/21/2018 06:21:59 -76.17, 144.08 73.39 0.27 18
9 10/23/2018 21:49:00 75.24, 89.60 108.51 10/23/2018 21:48:28 75.23, 89.53 108.55 2.11 32
10 10/23/2018 22:38:04 -76.43, -99.19 72.76 10/23/2018 22:38:48 -76.43, -99.23 72.79 1.22 44
11 10/26/2018 14:05:11 76.04,-152.18 108.53 10/26/2018 14:05:04 76.05,-152.09 108.52 2.71 7




NCC Satellite Simultaneous Nadir Overpasses (SNOs) Prediction Service
